Location: Bergheim
(50.9593°N, 6.6400°E)
Time: 07:49:59
(UTC+01:00)

ISS - Pass Details

Date: 25 November 2019
Orbit: 411 x 421 km, 51.6° (Epoch: 12 December)

Event Time Altitude Azimuth Distance (km) Brightness Sun altitude
Rises 19:12:26 0° 244° (WSW) 2,353 1.2 -24.1°
Reaches altitude 10° 19:14:32 10° 241° (WSW) 1,494 -0.1 -24.4°
Enters shadow 19:16:25 30° 232° (SW) 775 -2.0 -24.7°
